Location: Mentone
(34.5413°N, 85.5351°W)
Time: 05:29:34
(UTC-05:00)

Tiros 1 despin weight - Visible Passes

Search period start: 28 July 2016 00:00
Search period end: 07 August 2016 00:00
Orbit: 596 x 644 km, 48.2° (Epoch: 27 July)

Date Brightness Start Highest point End Pass type
(mag) Time Alt. Az. Time Alt. Az. Time Alt. Az.
28 Jul ? 01:14:55 14° NNE 01:14:55 14° NNE 01:15:38 10° NE visible
28 Jul ? 02:52:00 11° NW 02:54:10 15° N 02:56:43 10° NNE visible
28 Jul ? 04:34:21 10° NNW 04:37:10 16° NNE 04:40:00 10° NE visible
29 Jul ? 01:31:05 17° NNE 01:31:05 17° NNE 01:32:39 10° NNE visible
29 Jul ? 03:09:43 10° NNW 03:12:01 14° N 03:14:17 10° NNE visible
29 Jul ? 04:51:25 10° NNW 04:54:53 22° NNE 04:58:22 10° ENE visible
30 Jul ? 01:47:14 16° N 01:47:14 16° N 01:49:43 10° NNE visible
30 Jul ? 03:27:18 10° NNW 03:29:50 15° N 03:32:23 10° NE visible
30 Jul ? 05:08:25 10° NW 05:12:28 34° NNE 05:16:31 10° E visible
31 Jul ? 02:03:25 13° NNW 02:04:39 14° N 02:07:02 10° NNE visible
31 Jul ? 03:44:29 10° NNW 03:47:37 18° NNE 03:50:45 10° ENE visible
01 Aug ? 00:42:35 11° NNE 00:42:35 11° NNE 00:42:46 10° NNE visible
01 Aug ? 02:20:07 10° NNW 02:22:29 14° N 02:24:51 10° NE visible
01 Aug ? 04:01:30 10° NW 04:05:16 26° NNE 04:09:01 10° E visible
01 Aug ? 21:28:45 10° SSW 21:30:49 24° S 21:30:49 24° S visible
02 Aug ? 00:58:58 13° NNE 00:58:58 13° NNE 00:59:56 10° NNE visible
02 Aug ? 02:37:29 10° NNW 02:40:19 16° NNE 02:43:07 10° NE visible
02 Aug ? 04:18:31 10° NW 04:22:46 44° NNE 04:27:00 10° ESE visible
02 Aug ? 21:45:37 10° SW 21:50:13 87° SE 21:51:32 46° NE visible
02 Aug ? 23:28:35 10° WNW 23:28:55 11° WNW 23:28:55 11° WNW visible
03 Aug ? 01:15:48 13° N 01:15:48 13° N 01:17:27 10° NNE visible
03 Aug ? 02:54:34 10° NNW 02:58:02 22° NNE 03:01:28 10° ENE visible
03 Aug ? 04:35:40 10° NW 04:40:06 85° NE 04:44:32 10° SE visible
03 Aug ? 20:22:11 10° SSW 20:26:05 28° SE 20:29:58 10° ENE visible
03 Aug ? 22:03:05 10° WSW 22:07:31 49° NNW 22:11:35 12° NE visible
03 Aug ? 23:46:56 10° NW 23:48:52 16° NNW 23:48:52 16° NNW visible
04 Aug ? 01:33:54 14° NNE 01:33:54 14° NNE 01:35:31 10° NE visible
04 Aug ? 03:11:35 10° NW 03:15:37 33° NNE 03:19:37 10° E visible
04 Aug ? 04:53:03 10° WNW 04:57:17 45° SW 05:01:29 10° SSE visible
04 Aug ? 20:38:38 10° SW 20:43:10 59° SE 20:47:39 10° ENE visible
04 Aug ? 22:21:00 10° W 22:25:00 29° NNW 22:28:57 10° NE visible
05 Aug ? 00:05:15 10° NW 00:06:53 14° NNW 00:06:53 14° NNW visible
05 Aug ? 03:31:17 33° NNW 03:33:02 59° NE 03:37:24 10° ESE visible
05 Aug ? 05:11:01 10° W 05:14:19 21° SW 05:17:36 10° S visible
05 Aug ? 20:55:48 10° WSW 21:00:24 69° NW 21:04:57 10° NE visible
05 Aug ? 22:39:14 10° WNW 22:42:37 20° NNW 22:45:59 10° NNE visible
06 Aug ? 00:23:10 10° NNW 00:23:41 11° NNW 00:23:41 11° NNW visible
06 Aug ? 03:51:59 36° SSE 03:51:59 36° SSE 03:54:41 10° SE visible
06 Aug ? 21:13:30 10° W 21:17:47 38° NNW 21:22:02 10° NE visible
06 Aug ? 22:57:36 10° NW 23:00:23 16° N 23:02:58 10° NNE visible
